Regional Weather Roundup
Issued by NWS

Home | Current Version | Previous Version | Graphics & Text | Print | Product List | Glossary Off
Versions: 1 2 3 4 5 6 7 8 9 10 11 12 13 14 15 16 17 18 19 20 21 22 23 24 25 26 27 28 29 30 31 32 33 34 35 36 37 38 39 40 41 42 43 44 45 46 47 48 49 50

000
ASUS43 KMKX 032300
RWRWI

WISCONSIN REGIONAL WEATHER ROUNDUP
NATIONAL WEATHER SERVICE MILWAUKEE/SULLIVAN WI
500 PM CST SAT DEC 03 2016

NOTE: "FAIR" INDICATES FEW OR NO CLOUDS BELOW 12,000 FEET WITH NO
SIGNIFICANT WEATHER AND/OR OBSTRUCTIONS TO VISIBILITY.

WIZ001-002-006>008-014>016-023>028-040000-
NORTHWEST WISCONSIN

CITY           SKY/WX    TMP DP  RH WIND       PRES   REMARKS
SUPERIOR ARPT  CLOUDY    31  21  66 S3        30.23R
ASHLAND        CLOUDY    31  25  78 CALM      30.24S
HAYWARD        CLOUDY    30  21  69 S7        30.22S WCI  23
SIREN          CLOUDY    30  22  71 S6        30.23R WCI  24
CUMBERLAND     CLOUDY    28  21  74 S7        30.23R WCI  21
RICE LAKE      CLOUDY    30  23  75 SE7       30.24F WCI  23
CHETEK         CLOUDY    29  22  74 S5        30.24F WCI  24
LADYSMITH      CLOUDY    30  25  79 CALM      30.25S
EAU CLAIRE     CLOUDY    30  21  69 S6        30.25F WCI  24
MENOMONIE      CLOUDY    31  22  69 S6        30.26S WCI  25
NEW RICHMOND   CLOUDY    29  20  69 S9        30.24S WCI  21
OSCEOLA        CLOUDY    31  22  70 S8        30.26F WCI  23
$$

WIZ003>005-009-010-017-018-040000-
NORTH CENTRAL WISCONSIN

CITY           SKY/WX    TMP DP  RH WIND       PRES   REMARKS
MANITOWISH WTR CLOUDY    27  22  81 S7        30.21S WCI  20
ARBOR VITAE    CLOUDY    32  27  81 CALM      30.20F
WOODRUFF       CLOUDY    32  27  81 CALM      30.20F
RHINELANDER    CLOUDY    28  21  75 CALM      30.22F
EAGLE RIVER    CLOUDY    28  19  69 S3        30.20F
LAND O LAKES   CLOUDY    29  23  77 CALM      30.22S
PHILLIPS       CLOUDY    28  23  82 S7        30.22R WCI  20
TOMAHAWK       CLOUDY    28  20  71 CALM      30.23S
MEDFORD        CLOUDY    28  23  80 SW6       30.22S WCI  22
MERRILL        CLOUDY    28  21  74 CALM      30.25R
$$

WIZ029-030-035-036-043>047-040000-
CENTRAL WISCONSIN

CITY           SKY/WX    TMP DP  RH WIND       PRES   REMARKS
WAUSAU         CLOUDY    29  21  72 CALM      30.24R
MOSINEE        CLOUDY    28  23  80 CALM      30.26
MARSHFIELD     CLOUDY    28  21  75 S5        30.24S WCI  23
STEVENS POINT  CLOUDY    28  21  75 CALM      30.26F
WAUPACA        CLOUDY    33  23  68 CALM      30.28F
WAUTOMA        CLOUDY    30  22  72 CALM      30.29S
WISC RAPIDS    CLOUDY    30  22  72 CALM      30.28S
CAMP DOUGLAS   CLOUDY    32  21  64 SW3       30.27S
$$

WIZ011>013-019>022-031-037>040-048>050-040000-
NORTHEAST WISCONSIN

CITY           SKY/WX    TMP DP  RH WIND       PRES   REMARKS
ANTIGO         CLOUDY    26  21  79 CALM      30.24S
SHAWANO        CLOUDY    32  22  66 W3        30.28S
OCONTO         CLOUDY    32  23  69 SW3       30.28S
STURGEON BAY   CLOUDY    31  25  78 S7        30.28S WCI  24
GREEN BAY      CLOUDY    33  24  69 W5        30.28F WCI  29
MANITOWOC      NOT AVBL
APPLETON       CLOUDY    30  21  69 VRB3      30.26S
CLINTONVILLE   CLOUDY    32  23  69 CALM      30.27F
OSHKOSH        CLOUDY    30  22  72 S3        30.29S
$$

WIZ032>034-041-042-053>061-040000-
SOUTHWEST WISCONSIN

CITY           SKY/WX    TMP DP  RH WIND       PRES   REMARKS
LA CROSSE      CLOUDY    33  23  66 S3        30.27F
SPARTA         CLOUDY    32  24  73 CALM      30.28S
VIROQUA        CLOUDY    31  25  81 S3        30.25S
BOSCOBEL       CLOUDY    34  25  69 CALM      30.29S
PRAIRIE DU CHI MOCLDY    34  25  70 E5        30.28S WCI  30
PLATTEVILLE    MOCLDY    33  28  81 CALM      30.28S
$$

WIZ056-057-062-063-064-067-068-040000-
SOUTH CENTRAL WISCONSIN

CITY           SKY/WX    TMP DP  RH WIND       PRES   REMARKS
REEDSBURG      CLOUDY    31  25  77 S3        30.28S
BARABOO/DELLS  CLOUDY    32  21  65 SW3       30.28R
LONE ROCK      NOT AVBL
MINERAL POINT  CLOUDY    32  28  86 CALM      30.27S
MADISON        CLOUDY    32  23  69 CALM      30.29S
MIDDLETON      CLOUDY    33  26  77 CALM      30.28F
WATERTOWN      CLOUDY    31  25  78 CALM      30.29F
MONROE         CLOUDY    32  27  80 CALM      30.27F
JANESVILLE     CLOUDY    34  25  69 CALM      30.29F
$$

WIZ051-052-058>065-066-070>072-040000-
SOUTHEAST WISCONSIN

CITY           SKY/WX    TMP DP  RH WIND       PRES   REMARKS
MILWAUKEE      CLOUDY    33  20  58 NW9       30.31F WCI  25
WAUKESHA       CLOUDY    28  21  74 CALM      30.31F
MILWAUKEE/TIMM CLOUDY    30  19  64 CALM      30.31F
RACINE         CLOUDY    32  22  66 N3        30.32F
BURLINGTON     CLOUDY    31  24  75 CALM      30.31S
KENOSHA        CLOUDY    31  23  72 W3        30.31F
FOND DU LAC    CLOUDY    31  19  61 W5        30.29S WCI  26
SHEBOYGAN      CLOUDY    31  22  69 SW3       30.29F
WEST BEND      CLOUDY    30  23  74 NW5       30.29F WCI  25
JUNEAU         CLOUDY    30  23  75 S6        30.30S WCI  24
$$

LSZ147-162-040000-
LAKE SUPERIOR

STATION/POSITION TIME  TEMP    WIND        PRES    WAVE
                       AIR SEA DIR/SP/G            HT/PER
                 (UTC) (F)     (DEG/KT/KT) (MB)    (FT/S)
DEVILS ISLAND    2200   33     200/  5/  6 1024.9F
PORT WING        2230   32     200/  5/  6 1023.7F
SAXON HARBOR     2230   32     160/  2/  4 1024.0S
$$

LMZ867-665-643>646-040000-
LAKE MICHIGAN

STATION/POSITION TIME  TEMP    WIND        PRES    WAVE
                       AIR SEA DIR/SP/G            HT/PER
                 (UTC) (F)     (DEG/KT/KT) (MB)    (FT/S)
CHAMBERS ISLAND  2240   35      CALM  /  3 1024.4F
NORTHPORT PIER   2240   36      CALM  /  3 1024.7S
SISTER BAY       2224   36     210/  8/ 10   N/A
ALGOMA LAKESHORE 2251          240/  8/  9   N/A
KEWAUNEE LAKESHO 2230   32     280/  4/  6 1025.5R
SHEBOYGAN LAKESH 2200   33     230/  7/  9 1026.7S
PORT WASHINGTON  2230   33     280/  4/  7 1027.1F
MILWAUKEE LAKESH 2230   32     310/  5/  7   N/A
S MID LAKE BUOY  2150   35 48  260/  6/ 14 1027.0R   1/ 3
KENOSHA   LAKESH 2200   32     260/  7/  8 1026.8
$$

TC  - TEMPERATURE IN CELSIUS
VSB - VISIBILITY IN STATUTE MILES
WCI - WIND CHILL INDEX
HX  - HEAT INDEX




USA.gov is the U.S. government's official web portal to all federal, state and local government web resources and services.